Weather History for Hollywood, FL

Change the Weather History Date:

Wednesday, August 27, 2014

  Actual Average (KFLL) Record (KFLL)
Temperature  
Mean Temperature 83 °F 84 °F  
Max Temperature 91 °F 90 °F 97 °F (1954)
Min Temperature 75 °F 78 °F 69 °F (1922)
Degree Days  
Heating Degree Days 0 0  
Month to date heating degree days 0  
Since 1 June heating degree days 0  
Since 1 July heating degree days 0  
Cooling Degree Days 18 19  
Month to date cooling degree days 532  
Year to date cooling degree days 3091  
Since 1 June cooling degree days 1673  
Growing Degree Days 33 (Base 50)    
Moisture  
Dew Point 71 °F    
Average Humidity 67    
Maximum Humidity 85    
Minimum Humidity 48    
Precipitation  
Precipitation 0.00 in 0.27 in 4.75 in (1964)
Month to date precipitation 6.35  
Year to date precipitation 39.98  
Snow  
Snow 0.00 in - - ()
Month to date snowfall  
Since 1 June snowfall  
Since 1 July snowfall  
Snow Depth -    
Sea Level Pressure  
Sea Level Pressure 29.94 in    
Wind  
Wind Speed 7 mph (NE)    
Max Wind Speed 16 mph    
Max Gust Speed -    
Visibility 10 miles    
Events      
T = Trace of Precipitation, MM = Missing Value Source: NWS Daily Summary

Daily Weather History Graph

Daily Weather History Graph

Search for Another Location

Airport:

Trip Planner

Search our weather history database for the weather conditions in past years. The results will help you decide how hot, cold, wet, or windy it might be!

Date:

Astronomy

Aug. 27, 2014 Rise Set
Actual Time 6:59 AM EDT 7:45 PM EDT
Civil Twilight 6:35 AM EDT 8:09 PM EDT
Nautical Twilight 6:07 AM EDT 8:36 PM EDT
Astronomical Twilight 5:39 AM EDT 9:05 PM EDT
Moon 8:38 AM EDT (8/27) 8:54 PM EDT (8/27)
Length of Visible Light 13h 33m
Length of Day
12h 46m
Waxing Crescent, 4% of the Moon is Illuminated
Aug 27
Waxing Crescent
Sep 2
First Quarter
Sep 8
Full
Sep 15
Last Quarter
Sep 24
New

Hourly Weather History & Observations

Time (EDT) Temp. Heat Index Dew Point Humidity Pressure Visibility Wind Dir Wind Speed Gust Speed Precip Events Conditions
12:53 AM 81.0 °F 84.1 °F 69.1 °F 67% 29.91 in 10.0 mi NE 4.6 mph - N/A   Clear
1:53 AM 80.1 °F 83.2 °F 70.0 °F 71% 29.91 in 10.0 mi North 4.6 mph - N/A   Mostly Cloudy
2:53 AM 78.1 °F - 70.0 °F 76% 29.90 in 10.0 mi NNW 4.6 mph - N/A   Mostly Cloudy
3:53 AM 78.1 °F - 70.0 °F 76% 29.90 in 10.0 mi North 4.6 mph - N/A   Overcast
4:53 AM 75.9 °F - 70.0 °F 82% 29.90 in 10.0 mi North 4.6 mph - N/A   Partly Cloudy
5:53 AM 75.9 °F - 70.0 °F 82% 29.90 in 10.0 mi North 3.5 mph - N/A   Partly Cloudy
6:53 AM 75.9 °F - 71.1 °F 85% 29.92 in 10.0 mi North 4.6 mph - N/A   Scattered Clouds
7:53 AM 79.0 °F - 73.0 °F 82% 29.94 in 10.0 mi NNE 3.5 mph - N/A   Scattered Clouds
8:53 AM 84.0 °F 91.2 °F 73.9 °F 72% 29.95 in 10.0 mi NE 3.5 mph - N/A   Clear
9:53 AM 87.1 °F 94.5 °F 73.0 °F 63% 29.96 in 10.0 mi NE 12.7 mph - N/A   Partly Cloudy
10:53 AM 89.1 °F 95.0 °F 71.1 °F 55% 29.96 in 10.0 mi ENE 11.5 mph - N/A   Clear
11:53 AM 91.9 °F 99.5 °F 72.0 °F 52% 29.96 in 10.0 mi ENE 9.2 mph - N/A   Partly Cloudy
12:53 PM 91.0 °F 97.6 °F 71.1 °F 52% 29.96 in 10.0 mi East 13.8 mph - N/A   Clear
1:53 PM 91.0 °F 96.6 °F 70.0 °F 50% 29.96 in 10.0 mi ENE 9.2 mph - N/A   Mostly Cloudy
2:53 PM 91.0 °F 97.6 °F 71.1 °F 52% 29.95 in 10.0 mi East 16.1 mph - N/A   Partly Cloudy
3:53 PM 89.1 °F 95.0 °F 71.1 °F 55% 29.94 in 10.0 mi East 12.7 mph - N/A   Partly Cloudy
4:53 PM 90.0 °F 93.6 °F 68.0 °F 48% 29.93 in 10.0 mi East 11.5 mph - N/A   Clear
5:53 PM 89.1 °F 94.1 °F 70.0 °F 53% 29.94 in 10.0 mi ENE 12.7 mph - N/A   Clear
6:53 PM 86.0 °F 92.2 °F 72.0 °F 63% 29.95 in 10.0 mi East 11.5 mph - N/A   Clear
7:53 PM 84.0 °F 90.2 °F 73.0 °F 69% 29.96 in 10.0 mi ESE 12.7 mph - N/A   Clear
8:53 PM 82.9 °F 88.8 °F 73.0 °F 72% 29.97 in 10.0 mi East 9.2 mph - N/A   Clear
9:53 PM 82.9 °F 88.8 °F 73.0 °F 72% 29.99 in 10.0 mi ENE 5.8 mph - N/A   Clear
10:53 PM 82.0 °F 87.4 °F 73.0 °F 74% 29.99 in 10.0 mi ENE 6.9 mph - N/A   Partly Cloudy
11:53 PM 82.0 °F 87.4 °F 73.0 °F 74% 30.01 in 10.0 mi East 5.8 mph - N/A   Clear